FW6456 Weather Reports


time (UTC)temp
C
wind
direction
speed
KPH
gust
KPH
rain 1hr
cm
rain 24hr
cm
rain mn
cm
humidity
%
barometer
mb
20260509231227 26 126 0.0 0.0 0.00 0.00 0.00 48 3402.6
20260509230724 26 126 0.0 0.0 0.00 0.00 0.00 49 3402.3
20260509230221 27 118 1.6 3.2 0.00 0.00 0.00 46 3402.2
20260509225716 27 193 1.6 3.2 0.00 0.00 0.00 47 3402.4
20260509225212 27 193 1.6 3.2 0.00 0.00 0.00 46 3402.2
20260509224708 26 160 0.0 0.0 0.00 0.00 0.00 48 3402.1
20260509224205 26 160 3.2 3.2 0.00 0.00 0.00 47 3402.6
20260509223702 27 151 4.8 4.8 0.00 0.00 0.00 45 3402.3
20260509223159 27 241 3.2 4.8 0.00 0.00 0.00 44 3402.1
20260509222656 27 144 0.0 0.0 0.00 0.00 0.00 46 3402.1
20260509222152 27 148 0.0 0.0 0.00 0.00 0.00 44 3402.0
20260509221648 27 141 4.8 4.8 0.00 0.00 0.00 44 3402.1
20260509221143 27 150 0.0 3.2 0.00 0.00 0.00 44 3402.0
20260509220640 27 211 3.2 4.8 0.00 0.00 0.00 47 3402.2
20260509220136 27 348 3.2 4.8 0.00 0.00 0.00 46 3402.2
20260509215632 27 44 3.2 4.8 0.00 0.00 0.00 44 3402.1
20260509215129 27 224 1.6 3.2 0.00 0.00 0.00 45 3402.2
20260509214626 26 319 4.8 4.8 0.00 0.00 0.00 46 3402.1
20260509214123 26 65 0.0 3.2 0.00 0.00 0.00 48 3402.1
20260509213619 26 141 0.0 0.0 0.00 0.00 0.00 46 3402.0
20260509213115 27 292 6.4 8.0 0.00 0.00 0.00 44 3401.9
20260509212613 27 287 0.0 3.2 0.00 0.00 0.00 44 3402.0
20260509212110 27 228 0.0 0.0 0.00 0.00 0.00 50 3401.9
20260509211606 26 88 1.6 3.2 0.00 0.00 0.00 47 3402.1
20260509211103 26 354 8.0 11.3 0.00 0.00 0.00 46 3401.8
20260509210559 26 9 3.2 3.2 0.00 0.00 0.00 48 3401.9
20260509210056 26 311 4.8 8.0 0.00 0.00 0.00 50 3402.1
20260509205550 25 321 8.0 11.3 0.00 0.00 0.00 49 3402.2
20260509205045 25 173 3.2 4.8 0.00 0.00 0.00 53 3402.1
20260509204542 25 15 1.6 3.2 0.00 0.00 0.00 52 3402.0
20260509204038 25 125 1.6 3.2 0.00 0.00 0.00 54 3402.2
20260509203534 25 272 3.2 4.8 0.00 0.00 0.00 53 3402.3
20260509203033 25 26 3.2 4.8 0.00 0.00 0.00 54 3402.6
20260509202527 25 164 3.2 4.8 0.00 0.00 0.00 57 3402.6
20260509202023 25 259 6.4 8.0 0.00 0.00 0.00 55 3402.7
20260509201518 25 261 8.0 11.3 0.00 0.00 0.00 55 3402.7
20260509201016 25 166 0.0 3.2 0.00 0.00 0.00 56 3402.7
20260509200510 25 248 4.8 8.0 0.00 0.00 0.00 56 3402.8
20260509200007 25 260 6.4 8.0 0.00 0.00 0.00 57 3403.0
20260509195502 25 265 1.6 3.2 0.00 0.00 0.00 55 3402.6
20260509195001 25 20 4.8 4.8 0.00 0.00 0.00 56 3402.8
20260509194457 25 133 4.8 4.8 0.00 0.00 0.00 56 3402.9
20260509193955 26 95 4.8 4.8 0.00 0.00 0.00 54 3403.0
20260509193454 25 159 0.0 0.0 0.00 0.00 0.00 57 3402.9
20260509192951 25 159 1.6 3.2 0.00 0.00 0.00 59 3403.1
20260509192448 24 135 1.6 3.2 0.00 0.00 0.00 59 3403.0
20260509191943 24 259 4.8 4.8 0.00 0.00 0.00 57 3402.8
20260509191438 24 153 0.0 3.2 0.00 0.00 0.00 57 3402.9
20260509190934 25 251 6.4 8.0 0.00 0.00 0.00 56 3403.0
20260509190431 25 300 8.0 11.3 0.00 0.00 0.00 56 3402.7
20260509185929 25 135 4.8 4.8 0.00 0.00 0.00 60 3402.8
20260509185426 24 276 0.0 0.0 0.00 0.00 0.00 54 3402.8
20260509184923 24 261 4.8 4.8 0.00 0.00 0.00 58 3402.9
20260509184421 23 12 1.6 3.2 0.00 0.00 0.00 60 3402.8
20260509183917 24 302 8.0 11.3 0.00 0.00 0.00 59 3403.2
20260509183411 24 333 4.8 4.8 0.00 0.00 0.00 60 3402.9
20260509182908 24 303 8.0 12.9 0.00 0.00 0.00 58 3402.9
20260509182405 24 239 4.8 8.0 0.00 0.00 0.00 59 3403.0
20260509181902 25 125 3.2 3.2 0.00 0.00 0.00 59 3402.9
20260509181359 25 262 1.6 3.2 0.00 0.00 0.00 61 3403.1
20260509180857 24 86 1.6 3.2 0.00 0.00 0.00 63 3402.9
20260509180352 23 66 0.0 3.2 0.00 0.00 0.00 61 3402.9
20260509175849 23 134 1.6 3.2 0.00 0.00 0.00 60 3402.9
20260509175345 23 272 3.2 4.8 0.00 0.00 0.00 61 3403.3
20260509174841 23 72 0.0 0.0 0.00 0.00 0.00 62 3403.1
20260509174338 23 295 1.6 3.2 0.00 0.00 0.00 63 3403.2
20260509173834 23 42 0.0 0.0 0.00 0.00 0.00 63 3403.1
20260509173329 23 335 3.2 4.8 0.00 0.00 0.00 62 3403.3
20260509172825 22 132 1.6 3.2 0.00 0.00 0.00 61 3403.2
20260509172322 22 160 4.8 4.8 0.00 0.00 0.00 65 3403.3
20260509171818 22 321 4.8 8.0 0.00 0.00 0.00 65 3403.2
20260509171314 22 117 0.0 0.0 0.00 0.00 0.00 65 3403.1
20260509170811 22 356 1.6 4.8 0.00 0.00 0.00 66 3403.1
20260509170307 22 331 4.8 8.0 0.00 0.00 0.00 65 3403.1
20260509165806 21 15 3.2 4.8 0.00 0.00 0.00 70 3403.0
20260509165301 21 313 4.8 8.0 0.00 0.00 0.00 68 3403.4
20260509164757 21 343 4.8 8.0 0.00 0.00 0.00 69 3403.3
20260509164254 21 194 3.2 4.8 0.00 0.00 0.00 68 3403.4
20260509163750 21 1 4.8 4.8 0.00 0.00 0.00 71 3403.4
20260509163247 21 315 8.0 11.3 0.00 0.00 0.00 68 3403.3
20260509162745 21 29 0.0 3.2 0.00 0.00 0.00 71 3403.4
20260509162239 21 157 4.8 4.8 0.00 0.00 0.00 72 3403.0
20260509161736 21 31 1.6 3.2 0.00 0.00 0.00 72 3403.1
20260509161232 20 12 3.2 4.8 0.00 0.00 0.00 71 3403.0
20260509160727 20 294 1.6 3.2 0.00 0.00 0.00 70 3403.2
20260509160224 20 289 3.2 4.8 0.00 0.00 0.00 72 3403.3
20260509155718 20 131 3.2 4.8 0.00 0.00 0.00 74 3403.3
20260509155216 20 36 3.2 3.2 0.00 0.00 0.00 75 3403.3
20260509154711 20 336 4.8 4.8 0.00 0.00 0.00 77 3403.1
20260509154209 20 147 3.2 4.8 0.00 0.00 0.00 77 3403.0
20260509153706 19 16 1.6 4.8 0.00 0.00 0.00 77 3402.9
20260509153202 19 337 4.8 4.8 0.00 0.00 0.00 77 3403.0
20260509152658 19 311 3.2 4.8 0.00 0.00 0.00 77 3402.8
20260509152155 19 264 4.8 4.8 0.00 0.00 0.00 76 3403.0
20260509151652 18 82 0.0 0.0 0.00 0.00 0.00 80 3402.9
20260509151149 18 80 1.6 3.2 0.00 0.00 0.00 80 3403.1
20260509150647 18 113 0.0 0.0 0.00 0.00 0.00 82 3402.7
20260509150145 18 270 8.0 8.0 0.00 0.00 0.00 82 3403.0
20260509145641 18 33 3.2 4.8 0.00 0.00 0.00 82 3403.0
20260509145136 17 123 0.0 0.0 0.00 0.00 0.00 83 3403.3
20260509144633 17 148 4.8 4.8 0.00 0.00 0.00 83 3402.9
20260509144130 17 175 3.2 4.8 0.00 0.00 0.00 84 3402.6
20260509143627 17 139 0.0 3.2 0.00 0.00 0.00 85 3402.7
20260509143125 17 17 3.2 3.2 0.00 0.00 0.00 85 3402.8
20260509142620 17 305 3.2 4.8 0.00 0.00 0.00 86 3402.6
20260509142117 17 119 1.6 3.2 0.00 0.00 0.00 86 3402.6
20260509141612 17 3 11.3 16.1 0.00 0.00 0.00 87 3402.3
20260509141109 16 45 3.2 3.2 0.00 0.00 0.00 87 3402.6
20260509140606 16 157 1.6 3.2 0.00 0.00 0.00 88 3402.4
20260509140104 16 352 1.6 4.8 0.00 0.00 0.00 88 3402.3
20260509135601 16 134 3.2 3.2 0.00 0.00 0.00 88 3402.6
20260509135059 16 157 4.8 8.0 0.00 0.00 0.00 89 3402.3
20260509134555 16 61 1.6 3.2 0.00 0.00 0.00 89 3402.7
20260509134053 16 22 1.6 3.2 0.00 0.00 0.00 89 3402.4
20260509133550 16 358 1.6 3.2 0.00 0.00 0.00 90 3402.3
20260509133047 16 337 1.6 3.2 0.00 0.00 0.00 89 3402.7
20260509132545 15 28 0.0 3.2 0.00 0.00 0.00 90 3402.4
20260509132044 15 126 4.8 4.8 0.00 0.00 0.00 89 3402.8
20260509131539 15 160 4.8 8.0 0.00 0.00 0.00 90 3402.7
20260509131036 15 327 1.6 3.2 0.00 0.00 0.00 90 3402.4
20260509130532 15 232 1.6 3.2 0.00 0.00 0.00 91 3402.8
20260509130029 15 74 0.0 0.0 0.00 0.00 0.00 91 3402.6
20260509125525 15 303 4.8 4.8 0.00 0.00 0.00 91 3402.6
20260509125022 15 74 0.0 0.0 0.00 0.00 0.00 92 3402.6
20260509124519 15 63 0.0 0.0 0.00 0.00 0.00 92 3402.4
20260509124016 15 117 0.0 0.0 0.00 0.00 0.00 93 3402.3
20260509123514 15 52 0.0 3.2 0.00 0.00 0.00 94 3402.2
20260509123010 15 177 0.0 0.0 0.00 0.00 0.00 95 3402.2
20260509122506 15 148 1.6 4.8 0.00 0.00 0.00 95 3402.1
20260509122003 14 132 0.0 0.0 0.00 0.00 0.00 95 3402.2
20260509121500 14 124 0.0 0.0 0.00 0.00 0.00 95 3402.0
20260509120958 14 169 3.2 3.2 0.00 0.00 0.00 96 3401.8
20260509120455 14 74 0.0 0.0 0.00 0.00 0.00 96 3401.7
20260509115954 13 144 1.6 3.2 0.00 0.00 0.00 96 3401.5
20260509115450 13 118 0.0 0.0 0.00 0.00 0.00 96 3401.8
20260509114948 13 119 0.0 3.2 0.00 0.00 0.00 96 3401.4
20260509114446 13 119 0.0 0.0 0.00 0.00 0.00 96 3401.6
20260509113945 13 69 0.0 0.0 0.00 0.00 0.00 96 3401.5
20260509113442 13 69 0.0 0.0 0.00 0.00 0.00 96 3401.5
20260509112939 13 41 0.0 0.0 0.00 0.00 0.00 96 3401.6
20260509112436 13 41 0.0 0.0 0.00 0.00 0.00 96 3401.2
20260509111933 13 41 0.0 0.0 0.00 0.00 0.00 96 3401.2
20260509111431 13 41 0.0 0.0 0.00 0.00 0.00 96 3401.3
20260509110928 13 58 0.0 0.0 0.00 0.00 0.00 96 3401.3
20260509110423 13 58 0.0 0.0 0.00 0.00 0.00 96 3401.1
20260509105922 13 56 0.0 0.0 0.00 0.00 0.00 96 3401.1
20260509105420 13 25 3.2 3.2 0.00 0.00 0.00 96 3400.9
20260509104917 13 41 0.0 0.0 0.00 0.00 0.00 96 3400.9
20260509104413 13 41 0.0 0.0 0.00 0.00 0.00 95 3400.9
20260509103911 13 37 0.0 0.0 0.00 0.00 0.00 95 3400.9
20260509103408 13 89 0.0 0.0 0.00 0.00 0.00 95 3400.5
20260509102907 13 88 0.0 0.0 0.00 0.00 0.00 94 3400.6
20260509102404 14 87 0.0 0.0 0.00 0.00 0.00 94 3400.3
20260509101859 14 87 0.0 0.0 0.00 0.00 0.00 94 3400.3
20260509101355 14 50 0.0 0.0 0.00 0.00 0.00 93 3400.6
20260509100853 14 94 0.0 0.0 0.00 0.00 0.00 93 3400.8
20260509100350 14 96 0.0 0.0 0.00 0.00 0.00 93 3400.8
20260509095847 14 84 0.0 0.0 0.00 0.00 0.00 92 3400.7
20260509095344 14 88 0.0 0.0 0.00 0.00 0.00 92 3400.9
20260509094841 14 91 0.0 0.0 0.00 0.00 0.00 92 3401.1
20260509094338 14 29 1.6 3.2 0.00 0.00 0.00 91 3400.8
20260509093836 14 132 0.0 0.0 0.00 0.00 0.00 91 3400.8
20260509093332 15 132 0.0 0.0 0.00 0.00 0.00 90 3400.9
20260509092831 15 100 0.0 0.0 0.00 0.00 0.00 90 3400.9
20260509092328 15 68 1.6 3.2 0.00 0.00 0.00 89 3400.9
20260509091826 15 134 0.0 0.0 0.00 0.00 0.00 88 3401.3
20260509091323 15 126 0.0 0.0 0.00 0.00 0.00 87 3401.0
20260509090820 15 85 0.0 3.2 0.00 0.00 0.00 86 3400.7
20260509090317 15 59 0.0 3.2 0.00 0.00 0.00 85 3401.0
20260509085815 15 72 0.0 0.0 0.00 0.00 0.00 85 3400.9
20260509085312 15 159 0.0 0.0 0.00 0.00 0.00 84 3400.8
20260509084808 15 158 0.0 0.0 0.00 0.00 0.00 84 3400.9
20260509084306 15 158 0.0 0.0 0.00 0.00 0.00 84 3400.6
20260509083803 15 158 0.0 0.0 0.00 0.00 0.00 83 3400.9
20260509083300 15 158 0.0 0.0 0.00 0.00 0.00 83 3401.1
20260509082756 15 158 0.0 0.0 0.00 0.00 0.00 83 3401.1
20260509082253 15 159 0.0 0.0 0.00 0.00 0.00 83 3401.2
20260509081750 15 150 0.0 0.0 0.00 0.00 0.00 82 3401.3
20260509081247 15 199 1.6 3.2 0.00 0.00 0.00 82 3401.3
20260509080745 15 256 0.0 0.0 0.00 0.00 0.00 82 3401.5
20260509080243 15 154 0.0 0.0 0.00 0.00 0.00 82 3401.5
20260509075741 15 154 0.0 0.0 0.00 0.00 0.00 82 3401.4
20260509075238 15 155 0.0 0.0 0.00 0.00 0.00 81 3401.2
20260509074735 15 155 0.0 0.0 0.00 0.00 0.00 81 3401.5
20260509074233 15 155 0.0 0.0 0.00 0.00 0.00 81 3401.6
20260509073728 15 155 0.0 0.0 0.00 0.00 0.00 81 3401.4
20260509073225 15 155 0.0 0.0 0.00 0.00 0.00 80 3401.5
20260509072722 15 155 0.0 0.0 0.00 0.00 0.00 80 3401.5
20260509072219 15 156 0.0 0.0 0.00 0.00 0.00 80 3401.5
20260509071715 15 154 4.8 4.8 0.00 0.00 0.00 80 3401.6
20260509071213 15 153 0.0 0.0 0.00 0.00 0.00 81 3401.5
20260509070709 15 153 0.0 0.0 0.00 0.00 0.00 81 3401.4
20260509070206 15 154 1.6 3.2 0.00 0.00 0.00 80 3401.4
20260509065702 15 153 0.0 0.0 0.00 0.00 0.00 80 3401.4
20260509065158 15 154 0.0 0.0 0.00 0.00 0.00 79 3401.4
20260509064655 15 154 0.0 0.0 0.00 0.00 0.00 80 3401.4
20260509064153 15 151 0.0 3.2 0.00 0.00 0.00 80 3401.5
20260509063650 15 151 0.0 0.0 0.00 0.00 0.00 80 3401.6
20260509063146 15 151 0.0 0.0 0.00 0.00 0.00 80 3401.5
20260509062643 15 151 0.0 0.0 0.00 0.00 0.00 80 3401.4
20260509062140 14 152 0.0 0.0 0.00 0.00 0.00 80 3401.6
20260509061637 14 152 0.0 0.0 0.00 0.00 0.00 80 3401.6
20260509061135 14 153 0.0 0.0 0.00 0.00 0.00 81 3401.7
20260509060632 14 153 0.0 0.0 0.00 0.00 0.00 81 3401.7
20260509060128 14 148 0.0 0.0 0.00 0.00 0.00 82 3401.8
20260509055623 13 148 0.0 0.0 0.00 0.00 0.00 81 3402.0
20260509055119 13 148 0.0 0.0 0.00 0.00 0.00 83 3401.7
20260509054616 13 148 0.0 0.0 0.00 0.00 0.00 84 3401.7
20260509054114 13 148 0.0 0.0 0.00 0.00 0.00 85 3401.8
20260509053613 13 148 0.0 0.0 0.00 0.00 0.00 85 3401.8
20260509053109 13 148 0.0 0.0 0.00 0.00 0.00 86 3401.8
20260509052607 13 148 0.0 0.0 0.00 0.00 0.00 86 3401.9
20260509052105 13 148 0.0 0.0 0.00 0.00 0.00 86 3401.9
20260509051602 13 148 0.0 0.0 0.00 0.00 0.00 87 3401.9
20260509051059 13 149 0.0 0.0 0.00 0.00 0.00 86 3402.1
20260509050556 13 149 0.0 0.0 0.00 0.00 0.00 86 3402.2
20260509050052 13 149 0.0 0.0 0.00 0.00 0.00 85 3402.1
20260509045550 13 149 0.0 0.0 0.00 0.00 0.00 85 3402.1
20260509045047 13 149 0.0 0.0 0.00 0.00 0.00 84 3402.2
20260509044544 13 149 0.0 0.0 0.00 0.00 0.00 84 3402.2
20260509044042 13 149 0.0 0.0 0.00 0.00 0.00 85 3402.2
20260509043538 13 149 0.0 0.0 0.00 0.00 0.00 85 3402.1
20260509043033 12 149 0.0 0.0 0.00 0.00 0.00 85 3401.9
20260509042530 12 149 0.0 0.0 0.00 0.00 0.00 85 3402.3
20260509042026 12 149 0.0 0.0 0.00 0.00 0.00 85 3402.1
20260509041523 12 149 0.0 0.0 0.00 0.00 0.00 84 3401.9
20260509041021 12 149 0.0 0.0 0.00 0.00 0.00 84 3402.0
20260509040519 13 149 0.0 0.0 0.00 0.00 0.00 84 3401.9
20260509040015 13 149 0.0 0.0 0.00 0.00 0.00 84 3402.1
20260509035512 13 149 0.0 0.0 0.00 0.00 0.00 84 3402.0
20260509035009 13 149 0.0 0.0 0.00 0.00 0.00 84 3401.9
20260509034508 13 149 0.0 0.0 0.00 0.00 0.00 83 3402.1
20260509034004 13 149 0.0 0.0 0.00 0.00 0.00 82 3402.3
20260509033501 13 149 0.0 0.0 0.00 0.00 0.00 81 3402.3
20260509032957 13 149 0.0 0.0 0.00 0.00 0.00 81 3402.3
20260509032455 13 149 0.0 0.0 0.00 0.00 0.00 81 3402.2
20260509031952 13 149 0.0 0.0 0.00 0.00 0.00 82 3402.2
20260509031449 13 149 0.0 0.0 0.00 0.00 0.00 82 3402.3
20260509030946 13 149 0.0 0.0 0.00 0.00 0.00 81 3402.2
20260509030444 14 149 0.0 0.0 0.00 0.00 0.00 82 3402.2
20260509025941 14 149 0.0 0.0 0.00 0.00 0.00 81 3402.3
20260509025437 14 149 0.0 0.0 0.00 0.00 0.00 80 3402.2
20260509024932 15 149 0.0 0.0 0.00 0.00 0.00 80 3402.4
20260509024429 15 149 0.0 0.0 0.00 0.00 0.00 79 3402.3
20260509023925 15 149 0.0 0.0 0.00 0.00 0.00 78 3402.2
20260509023423 15 149 0.0 0.0 0.00 0.00 0.00 77 3402.6
20260509022919 15 149 0.0 3.2 0.00 0.00 0.00 76 3402.3
20260509022417 15 149 0.0 0.0 0.00 0.00 0.00 74 3402.6
20260509021914 15 149 0.0 0.0 0.00 0.00 0.00 76 3402.3
20260509021411 15 149 0.0 0.0 0.00 0.00 0.00 76 3402.3
20260509020908 15 149 0.0 0.0 0.00 0.00 0.00 76 3402.6
20260509020406 15 149 0.0 0.0 0.00 0.00 0.00 74 3402.7
20260509015903 15 149 0.0 0.0 0.00 0.00 0.00 74 3402.3
20260509015402 15 149 0.0 0.0 0.00 0.00 0.00 74 3402.3
20260509014858 16 149 0.0 0.0 0.00 0.00 0.00 74 3402.4
20260509014355 16 149 0.0 0.0 0.00 0.00 0.00 72 3402.3
20260509013851 16 149 0.0 0.0 0.00 0.00 0.00 72 3402.2
20260509013348 16 149 0.0 0.0 0.00 0.00 0.00 72 3402.1
20260509012844 16 149 0.0 0.0 0.00 0.00 0.00 71 3402.2
20260509012340 16 149 0.0 0.0 0.00 0.00 0.00 70 3402.3
20260509011838 17 149 0.0 0.0 0.00 0.00 0.00 68 3402.2
20260509011335 17 149 0.0 0.0 0.00 0.00 0.00 66 3402.2
20260509010833 17 149 0.0 0.0 0.00 0.00 0.00 66 3402.6
20260509010330 17 149 0.0 0.0 0.00 0.00 0.00 65 3402.2
20260509005828 18 149 0.0 0.0 0.00 0.00 0.00 65 3402.6
20260509005326 18 149 0.0 0.0 0.00 0.00 0.00 63 3402.6
20260509004826 18 149 0.0 0.0 0.00 0.00 0.00 61 3402.2
20260509004322 19 149 0.0 0.0 0.00 0.00 0.00 61 3402.4
20260509003820 19 149 0.0 0.0 0.00 0.00 0.00 60 3402.6
20260509003318 20 149 0.0 0.0 0.00 0.00 0.00 60 3402.3
20260509002815 20 149 0.0 0.0 0.00 0.00 0.00 59 3402.3
20260509002312 20 149 0.0 0.0 0.00 0.00 0.00 56 3402.4
20260509001810 20 149 0.0 0.0 0.00 0.00 0.00 55 3402.8
20260509001305 20 149 0.0 0.0 0.00 0.00 0.00 55 3402.3
20260509000803 21 149 0.0 0.0 0.00 0.00 0.00 54 3402.7
20260509000303 21 149 0.0 0.0 0.00 0.00 0.00 52 3402.7
20260508235757 21 149 0.0 0.0 0.00 0.00 0.00 52 3402.6
20260508235254 21 149 0.0 0.0 0.00 0.00 0.00 52 3402.6
20260508234751 21 200 1.6 4.8 0.00 0.00 0.00 50 3402.9
20260508234247 21 138 0.0 0.0 0.00 0.00 0.00 50 3402.6
20260508233741 21 105 0.0 0.0 0.00 0.00 0.00 52 3402.7
20260508233239 21 97 0.0 0.0 0.00 0.00 0.00 48 3402.8
20260508232736 21 115 0.0 0.0 0.00 0.00 0.00 48 3402.7
20260508232232 22 117 0.0 0.0 0.00 0.00 0.00 48 3402.8
20260508231730 22 153 1.6 3.2 0.00 0.00 0.00 48 3403.0